CDT,Max TemperatureF,Mean TemperatureF,Min TemperatureF,Max Dew PointF,MeanDew PointF,Min DewpointF,Max Humidity, Mean Humidity, Min Humidity, Max Sea Level PressureIn, Mean Sea Level PressureIn, Min Sea Level PressureIn, Max VisibilityMiles, Mean VisibilityMiles, Min VisibilityMiles, Max Wind SpeedMPH, Mean Wind SpeedMPH, Max Gust SpeedMPH,PrecipitationIn, CloudCover, Events, WindDirDegrees
2013-4-1,43,36,28,25,18,13,75,52,29,30.26,30.16,30.00,10,10,10,17,9,25,0.00,1,,325
2013-4-2,47,35,23,19,15,9,81,52,22,30.35,30.31,30.27,10,10,10,17,7,24,0.00,0,,321
2013-4-3,51,38,24,19,15,12,74,48,22,30.47,30.38,30.31,10,10,10,15,6,22,0.00,0,,85
2013-4-4,60,45,30,23,20,17,59,40,21,30.30,30.15,30.02,10,10,10,13,4,16,0.00,0,,245
2013-4-5,60,49,37,33,26,19,76,50,23,30.22,30.13,30.05,10,10,9,16,8,25,0.00,0,,56
2013-4-6,72,58,43,49,35,22,72,49,26,30.07,29.82,29.66,10,10,4,37,17,51,0.08,3,Rain-Thunderstorm,183
2013-4-7,70,56,42,43,41,39,89,62,35,29.96,29.88,29.75,10,9,4,16,6,22,0.00,0,,307
2013-4-8,73,65,57,57,54,43,87,68,49,29.87,29.75,29.62,10,9,2,25,11,33,0.45,5,Rain-Thunderstorm,192
2013-4-9,78,66,53,59,57,51,84,66,47,29.87,29.82,29.78,10,10,10,28,12,35,0.00,5,,171
2013-4-10,52,47,42,47,43,40,100,89,77,29.93,29.80,29.70,10,6,1,28,15,35,1.82,7,Rain-Thunderstorm,58
2013-4-11,50,44,38,46,41,29,100,85,70,29.68,29.64,29.61,10,7,2,23,10,29,0.12,8,Rain,250
2013-4-12,44,41,37,35,32,29,85,74,62,29.94,29.77,29.64,10,10,4,22,12,29,T,8,Rain,258
2013-4-13,52,44,35,33,28,22,76,59,42,30.02,29.97,29.93,10,10,10,21,10,29,0.00,6,,269
2013-4-14,75,61,46,51,43,33,71,52,33,29.96,29.75,29.60,10,10,10,31,17,39,0.03,4,Rain,152
2013-4-15,61,52,43,55,50,39,100,82,64,30.01,29.84,29.71,10,8,2,24,8,30,0.49,7,Rain-Thunderstorm,243
2013-4-16,54,48,42,42,37,34,89,70,50,30.20,30.14,29.99,10,10,7,21,8,26,0.29,8,Rain,26
2013-4-17,60,53,45,57,46,34,93,77,60,30.23,29.95,29.69,10,6,0,38,13,51,2.47,8,Rain-Thunderstorm,56
2013-4-18,63,51,38,60,52,29,100,82,64,29.69,29.59,29.44,10,7,1,32,14,43,1.37,8,Rain-Thunderstorm,234
2013-4-19,41,39,36,31,28,25,76,68,59,30.04,29.76,29.62,10,10,8,26,15,35,0.01,8,Rain-Snow,277
2013-4-20,49,40,30,28,25,22,78,56,34,30.39,30.25,30.06,10,10,10,13,6,16,0.00,1,,311
2013-4-21,58,48,38,38,32,27,65,56,47,30.47,30.38,30.30,10,10,10,20,12,27,0.00,1,,142
2013-4-22,68,56,43,47,37,32,70,60,49,30.30,30.20,30.02,10,10,10,20,10,24,0.02,1,Rain,158
2013-4-23,55,47,38,50,41,36,93,85,77,30.03,29.97,29.93,10,10,5,14,7,20,0.51,8,Rain,345
2013-4-24,51,44,36,35,32,27,92,69,46,30.19,30.09,29.98,10,10,10,15,8,22,0.01,6,Rain,304
2013-4-25,56,48,39,32,29,22,70,51,32,30.32,30.26,30.15,10,10,10,23,10,32,0.00,1,,271
2013-4-26,64,53,42,46,39,30,80,64,48,30.33,30.30,30.26,10,10,10,23,12,30,0.00,2,,186
2013-4-27,62,54,45,51,47,41,100,74,48,30.30,30.14,29.98,10,10,10,14,6,19,0.08,6,Rain,119
2013-4-28,68,60,51,52,51,49,93,75,56,29.97,29.91,29.84,10,8,1,14,6,18,0.00,6,,346
2013-4-29,75,61,47,59,53,45,100,77,53,29.92,29.83,29.73,10,9,4,26,13,35,0.00,0,,181
2013-4-30,85,73,60,60,56,53,90,62,34,29.94,29.82,29.75,10,10,7,24,14,31,0.00,0,,190